Location: Fort Frances
(48.6170°N, 93.4170°W)
Time: 16:23:23
(UTC-05:00)

ISS - All Passes

Search period start: 22 May 2017 00:00
Search period end: 01 June 2017 00:00
Orbit: 402 x 408 km, 51.6° (Epoch: 22 May)

Date Brightness Start Highest point End Pass type
(mag) Time Alt. Az. Time Alt. Az. Time Alt. Az.
22 May - 01:14:23 10° W 01:17:39 60° NNW 01:20:56 10° ENE visible
22 May - 02:51:14 10° WNW 02:54:27 50° N 02:57:39 10° E visible
22 May - 04:27:47 10° WNW 04:31:03 66° SSW 04:34:18 10° SE visible
22 May - 06:05:21 10° WSW 06:07:02 13° SW 06:08:43 10° SSW daylight
22 May - 22:46:35 10° SSW 22:49:20 24° SE 22:52:05 10° E visible
23 May - 00:22:17 10° WSW 00:25:35 79° NNW 00:28:53 10° ENE visible
23 May - 01:59:07 10° WNW 02:02:20 47° N 02:05:31 10° ENE visible
23 May - 03:35:44 10° WNW 03:39:02 85° NNE 03:42:19 10° ESE visible
23 May - 05:12:38 10° W 05:15:14 22° SW 05:17:49 10° SSE daylight
23 May - 21:55:29 10° S 21:57:30 15° SE 21:59:31 10° E visible
23 May - 23:30:15 10° WSW 23:33:32 73° SSE 23:36:50 10° ENE visible
24 May - 01:06:58 10° W 01:10:11 49° N 01:13:24 10° ENE visible
24 May - 02:43:40 10° WNW 02:46:57 64° NNE 02:50:13 10° E visible
24 May - 04:20:19 10° W 04:23:21 35° SSW 04:26:22 10° SSE visible
24 May - 22:38:22 10° SW 22:41:33 47° SSE 22:44:44 10° ENE visible
25 May - 00:14:47 10° W 00:18:02 56° N 00:21:18 10° ENE visible
25 May - 01:51:35 10° WNW 01:54:50 52° N 01:58:04 10° E visible
25 May - 03:28:08 10° WNW 03:31:23 56° SSW 03:34:36 10° SE visible
25 May - 05:06:19 10° WSW 05:07:17 11° SW 05:08:14 10° SSW daylight
25 May - 21:46:41 10° SSW 21:49:35 29° SE 21:52:31 10° E visible
25 May - 23:22:37 10° WSW 23:25:55 71° NNW 23:29:12 10° ENE visible
26 May - 00:59:27 10° WNW 01:02:40 47° N 01:05:53 10° E visible
26 May - 02:36:02 10° WNW 02:39:21 84° SSW 02:42:38 10° ESE visible
26 May - 04:13:07 10° W 04:15:28 18° SW 04:17:48 10° S visible
26 May - 20:55:20 10° S 20:57:41 18° SE 21:00:03 10° E daylight
26 May - 22:30:31 10° WSW 22:33:49 84° SSE 22:37:07 10° ENE visible
27 May - 00:07:17 10° W 00:10:29 47° N 00:13:42 10° ENE visible
27 May - 01:43:57 10° WNW 01:47:15 71° NNE 01:50:32 10° ESE visible
27 May - 03:20:40 10° W 03:23:34 29° SW 03:26:27 10° SSE visible
27 May - 20:04:52 10° SSE 20:05:52 11° SE 20:06:50 10° ESE daylight
27 May - 21:38:31 10° SW 21:41:45 55° SSE 21:45:00 10° ENE visible
27 May - 23:15:04 10° W 23:18:18 52° N 23:21:33 10° ENE visible
28 May - 00:51:51 10° WNW 00:55:06 56° NNE 00:58:21 10° E visible
28 May - 02:28:24 10° WNW 02:31:35 47° SSW 02:34:45 10° SE visible
28 May - 20:46:42 10° SSW 20:49:45 35° SSE 20:52:48 10° E daylight
28 May - 22:22:51 10° W 22:26:08 64° NNW 22:29:25 10° ENE visible
28 May - 23:59:41 10° WNW 00:02:55 49° N 00:06:08 10° E visible
29 May - 01:36:15 10° WNW 01:39:32 73° SSW 01:42:49 10° ESE visible
29 May - 03:13:34 10° W 03:15:34 15° SW 03:17:35 10° S visible
29 May - 19:55:11 10° SSW 19:57:47 22° SE 20:00:25 10° E daylight
29 May - 21:30:41 10° WSW 21:33:59 86° NNW 21:37:18 10° ENE daylight
29 May - 23:07:29 10° WNW 23:10:41 47° N 23:13:54 10° ENE visible
30 May - 00:44:07 10° WNW 00:47:25 79° NNE 00:50:43 10° ESE visible
30 May - 02:20:55 10° W 02:23:40 25° SW 02:26:24 10° SSE visible
30 May - 19:04:11 10° SSE 19:05:53 13° SE 19:07:36 10° ESE daylight
30 May - 20:38:36 10° SW 20:41:52 66° SSE 20:45:09 10° ENE daylight
30 May - 22:15:14 10° W 22:18:28 50° N 22:21:42 10° ENE visible
30 May - 23:51:58 10° WNW 23:55:15 60° NNE 23:58:31 10° E visible
31 May - 01:28:34 10° WNW 01:31:41 39° SSW 01:34:46 10° SE visible
31 May - 19:46:40 10° SW 19:49:47 41° SSE 19:52:56 10° ENE daylight
31 May - 21:22:59 10° W 21:26:15 59° NNW 21:29:31 10° ENE daylight
31 May - 22:59:47 10° WNW 23:03:02 51° N 23:06:16 10° E visible
